Hot Springs, AR

4:14 PM CDT on April 28, 2017 (GMT -0500)
Hot Springs Memorial

Weather History for KHOT - March, 2013

Change the Weather History Date:

Friday, March 22, 2013

  Actual Average Record
Temperature  
Mean Temperature 40 °F -  
Max Temperature 43 °F 65 °F 84 °F (1987)
Min Temperature 37 °F 42 °F 23 °F (1955)
Degree Days  
Heating Degree Days 25    
Moisture  
Dew Point 38 °F    
Average Humidity 92    
Maximum Humidity 93    
Minimum Humidity 86    
Precipitation  
Precipitation 0.38 in - - ()
Sea Level Pressure  
Sea Level Pressure 29.86 in    
Wind  
Wind Speed 10 mph (East)    
Max Wind Speed 16 mph    
Max Gust Speed 21 mph    
Visibility 6 miles    
Events Rain , Thunderstorm    
Averages and records for this station are not official NWS values.
T = Trace of Precipitation, MM = Missing Value Source: NWS Daily Summary

Daily Weather History Graph

Daily Weather History Graph

Search for Another Location

Airport or City:

Trip Planner

Search our weather history database for the weather conditions in past years. The results will help you decide how hot, cold, wet, or windy it might be!

Date:

Astronomy

Mar. 22, 2013 Rise Set
Actual Time 7:12 AM CDT 7:25 PM CDT
Civil Twilight 6:47 AM CDT 7:51 PM CDT
Nautical Twilight 6:18 AM CDT 8:20 PM CDT
Astronomical Twilight 5:48 AM CDT 8:50 PM CDT
Moon 3:03 PM CDT (3/22) 4:03 AM CDT (3/22)
Length of Visible Light 13h 03m
Length of Day
12h 12m
Waxing Gibbous, 77% of the Moon is Illuminated
Mar 22
Waxing Gibbous
Mar 27
Full
Apr 2
Last Quarter
Apr 10
New
Apr 18
First Quarter

Hourly Weather History & Observations

Time (CDT) Temp. Windchill Dew Point Humidity Pressure Visibility Wind Dir Wind Speed Gust Speed Precip Events Conditions
12:53 AM 37.9 °F 30.5 °F 34.0 °F 86% 29.86 in 4.0 mi East 11.5 mph - 0.05 in Rain Rain
1:01 AM 37.4 °F 29.3 °F 35.6 °F 93% 29.84 in 6.0 mi ESE 12.7 mph - 0.02 in Rain Light Rain
1:49 AM 37.4 °F 28.2 °F 35.6 °F 93% 29.84 in 1.8 mi East 16.1 mph 20.7 mph 0.18 in Rain , Thunderstorm Heavy Thunderstorms and Rain
1:50 AM 37.4 °F 28.5 °F 35.6 °F 93% 29.84 in 2.0 mi East 15.0 mph 20.7 mph 0.18 in Rain , Thunderstorm Heavy Thunderstorms and Rain
1:53 AM 37.9 °F 29.6 °F 36.0 °F 93% 29.85 in 2.0 mi East 13.8 mph - 0.18 in Rain , Thunderstorm Thunderstorms and Rain
1:59 AM 37.4 °F 29.8 °F 35.6 °F 93% 29.84 in 5.0 mi East 11.5 mph - 0.00 in Rain Light Rain
2:28 AM 37.4 °F 29.8 °F 35.6 °F 93% 29.83 in 10.0 mi East 11.5 mph - 0.00 in   Overcast
2:35 AM 37.4 °F 29.8 °F 35.6 °F 93% 29.84 in 10.0 mi East 11.5 mph - 0.00 in   Overcast
2:48 AM 37.4 °F 32.8 °F 35.6 °F 93% 29.85 in 6.0 mi ESE 5.8 mph - 0.02 in Rain Rain
2:53 AM 37.9 °F 32.1 °F 36.0 °F 93% 29.83 in 5.0 mi ESE 8.1 mph - 0.03 in Rain Rain
3:13 AM 37.4 °F 31.4 °F 35.6 °F 93% 29.82 in 5.0 mi East 8.1 mph 17.3 mph 0.02 in Rain Light Rain
3:41 AM 37.4 °F 32.1 °F 35.6 °F 93% 29.84 in 10.0 mi East 6.9 mph - 0.03 in   Overcast
3:50 AM 37.4 °F 32.1 °F 35.6 °F 93% 29.82 in 10.0 mi East 6.9 mph - 0.03 in   Overcast
3:53 AM 37.9 °F 31.5 °F 36.0 °F 93% 29.83 in 10.0 mi East 9.2 mph - 0.03 in   Overcast
4:01 AM 37.4 °F 33.8 °F 35.6 °F 93% 29.84 in 10.0 mi East 4.6 mph - N/A   Overcast
4:17 AM 37.4 °F 30.3 °F 35.6 °F 93% 29.83 in 10.0 mi East 10.4 mph - 0.00 in Rain Light Rain
4:53 AM 37.9 °F 30.9 °F 36.0 °F 93% 29.82 in 10.0 mi East 10.4 mph - 0.00 in Rain Light Rain
5:53 AM 39.0 °F 32.8 °F 37.0 °F 93% 29.83 in 10.0 mi East 9.2 mph - 0.00 in   Overcast
6:53 AM 39.0 °F 32.3 °F 37.0 °F 93% 29.84 in 10.0 mi East 10.4 mph - N/A   Overcast
7:53 AM 39.0 °F 32.3 °F 37.0 °F 93% 29.86 in 8.0 mi East 10.4 mph - 0.02 in Rain Light Rain
8:43 AM 39.2 °F 33.6 °F 37.4 °F 93% 29.90 in 2.5 mi ENE 8.1 mph - 0.03 in Rain Light Rain
8:53 AM 39.9 °F 34.5 °F 37.9 °F 93% 29.90 in 2.0 mi ENE 8.1 mph - 0.03 in Rain Light Rain
9:09 AM 39.2 °F 34.2 °F 37.4 °F 93% 29.90 in 3.0 mi ENE 6.9 mph - 0.00 in Rain Light Rain
9:53 AM 41.0 °F 35.8 °F 37.9 °F 89% 29.90 in 10.0 mi East 8.1 mph - 0.00 in   Overcast
10:33 AM 41.0 °F 36.4 °F 37.4 °F 87% 29.88 in 6.0 mi East 6.9 mph - 0.02 in Rain Heavy Rain
10:53 AM 41.0 °F 38.0 °F 39.0 °F 93% 29.90 in 10.0 mi Variable 4.6 mph - 0.02 in   Overcast
11:02 AM 41.0 °F 37.1 °F 39.2 °F 93% 29.89 in 10.0 mi ENE 5.8 mph - N/A   Overcast
11:53 AM 42.1 °F 37.7 °F 39.9 °F 92% 29.90 in 2.5 mi East 6.9 mph - 0.01 in Rain Light Rain
12:01 PM 42.8 °F 38.0 °F 39.2 °F 87% 29.89 in 4.0 mi East 8.1 mph - 0.00 in Rain Light Rain
12:53 PM 42.1 °F 36.6 °F 39.9 °F 92% 29.88 in 8.0 mi ENE 9.2 mph - 0.00 in   Overcast
1:51 PM 42.8 °F 37.0 °F 39.2 °F 87% 29.85 in 2.5 mi East 10.4 mph - N/A   Overcast
1:53 PM 43.0 °F 37.7 °F 39.9 °F 89% 29.85 in 2.5 mi East 9.2 mph - N/A   Overcast
2:53 PM 43.0 °F 37.7 °F 41.0 °F 93% 29.84 in 2.5 mi ENE 9.2 mph - N/A   Overcast
3:02 PM 42.8 °F 38.6 °F 41.0 °F 93% 29.84 in 3.0 mi ENE 6.9 mph - N/A   Overcast
3:22 PM 42.8 °F 38.0 °F 41.0 °F 93% 29.84 in 2.5 mi East 8.1 mph - N/A   Overcast
3:48 PM 42.8 °F 37.5 °F 41.0 °F 93% 29.84 in 4.0 mi ENE 9.2 mph - 0.00 in   Overcast
3:53 PM 43.0 °F 37.7 °F 41.0 °F 93% 29.84 in 4.0 mi East 9.2 mph - 0.00 in   Overcast
4:17 PM 42.8 °F 39.3 °F 41.0 °F 93% 29.85 in 2.5 mi Variable 5.8 mph - 0.01 in Rain Light Rain
4:25 PM 42.8 °F 38.6 °F 39.2 °F 87% 29.85 in 3.0 mi NE 6.9 mph - 0.01 in   Overcast
4:53 PM 43.0 °F 37.2 °F 39.9 °F 89% 29.86 in 6.0 mi NE 10.4 mph - 0.01 in   Overcast
5:53 PM 43.0 °F 39.5 °F 41.0 °F 93% 29.86 in 10.0 mi NE 5.8 mph - N/A   Overcast
6:53 PM 42.1 °F 37.1 °F 39.9 °F 92% 29.88 in 10.0 mi NE 8.1 mph - N/A   Overcast
7:53 PM 42.1 °F 37.7 °F 39.0 °F 89% 29.91 in 8.0 mi NE 6.9 mph - N/A   Overcast
8:53 PM 41.0 °F 35.2 °F 39.0 °F 93% 29.89 in 9.0 mi ENE 9.2 mph - 0.00 in   Overcast
9:53 PM 42.1 °F 38.4 °F 39.0 °F 89% 29.90 in 10.0 mi East 5.8 mph - N/A   Overcast
10:53 PM 42.1 °F 36.6 °F 39.0 °F 89% 29.90 in 10.0 mi ENE 9.2 mph - N/A   Overcast
11:53 PM 42.1 °F 37.7 °F 39.9 °F 92% 29.90 in 10.0 mi NE 6.9 mph - N/A   Overcast